User: anonymous   Login
Location: *
(45.9500°N, 9.0833°E)
Time: 02:13:07
(UTC+00:00)
Language:

Explorer 11/Cluster Stage 4 - Orbit

View from above orbital plane
View from above orbital plane
View from above satellite
View from above satellite

Ground track
Ground track

The orbit data is extracted from the following two-line orbital elements,

1 00107U 61013A   21163.53488775  .00000739  00000-0  79361-4 0  9998
2 00107  28.7882 307.4565 0545535 153.2907 209.6870 14.09216329 17062
Epoch (UTC): 12 June 2021 12:50:14
Eccentricity: 0.0545535
inclination: 28.7882°
perigee height: 467 km
apogee height: 1257 km
right ascension of ascending node: 307.4565°
argument of perigee: 153.2907°
revolutions per day: 14.09216329
mean anomaly at epoch: 209.6870°
orbit number at epoch: 1706

The dashed part of the orbit path shows where the satellite is in the earth's shadow,  

DLR